BREEZE-M DEB, 43407

Orbit data source: Space-Track

BREEZE-M DEB, 43407 is space debris in HEO originally from a launch on Mon, 15 Apr 2013 UTC launched from the Tyuratam Missile And Space Complex (TTMTR). Debris objects in space refer to the collection of defunct objects orbiting the Earth. Examples of debris include non-operational satellites, rocket bodies, and fragments generated from explosions, collisions, or faulty payload assembly.

Loading next visibility...
Identifier
43407, 2013-014D
Orbit
HEO
Country
Flag of CISCIS
Related business
Manufacturer
Khrunichev
Mission
Spacecraft
Bus & Motor
Unknown
Mass
Unknown
Launch date (UTC)
2013-04-15 (13 years ago)
Launch vehicle
Unknown
Launch site
Tyuratam Missile And Space Complex (TTMTR)
Object type
Payload
Rocket body
Debris
Shape & HBR
Unknown shape, 1.1 m
Radar Cross Section
Medium (>0.1 m² and <1 m²)

Expand to show TLE details & history
Last TLE update: 1 day ago

TLE from 1 day ago
0 BREEZE-M DEB
1 43407U 13014D   26207.91975071 -.00000078  00000-0  00000-0 0  9999
2 43407  15.6426 350.2782 4838883 237.6368  66.5220  1.91515457 76123
Epoch: 2026-07-26T22:04Z
TLE epoch observation values (Epoch: 2026-07-26T22:04:26.461Z)
Latitude
-0.00001°
Longitude
74.59193°
Altitude
21,930.733 km
Speed
3.689 km/s
True Right ascension
23h 21m 15s
True Declination
0° 00' 00"
Sunlit
Object was in daylight at epoch
Visualization orbit readout
Latitude
Unknown
Longitude
Unknown
Altitude
Unknown
Speed
Unknown
Apparent Right ascension
Unknown
Apparent Declination
Unknown
Sunlit
N/A
Visualization observer readout
Local Sidereal Time
22:15:45
Azimuth
Unknown
Elevation
Unknown
Doppler factor
Unknown
Orbital elements
Apogee altitude
34,269.439 km
Perigee altitude
7,759.511 km
Semi-major axis
27,392.612 km
Eccentricity
0.48389
Inclination
15.6426°
RAAN
350.2782°
Arg. of periapsis
237.6368°
True anomaly
122.52894°
Mean anomaly
66.522°
Eccentric anomaly
94.17325°
Mean motion
0.47873 °/min
Orbital period
751.99 mins
BSTAR
0
Loading maneuver chart data...
Computing Atmospheric mass density...
Loading historical data...
Loading historical data...
Loading historical data...
Loading historical data...
Loading historical data...
Loading historical data...
Loading historical data...
Other satellites on launch #14 in the year 2013 (2013-04-15 UTC)

Documentation

Showing up to 5 results
|